Location: Bronnegerveen
(52.9548°N, 6.8388°E)
Time: 01:46:56
(UTC+00:00)

Nadezhda 4 Rocket - Pass Details

Date: 15 June 2025
Orbit: 950 x 990 km, 82.9° (Epoch: 07 July)

Event Time Altitude Azimuth Distance (km) Brightness Sun altitude
Exits shadow 00:38:07 14° 172° (S) 2,427 5.5 -12.4°
Maximum altitude 00:43:28 64° 94° (E) 1,074 4.3 -12.2°
Drops below altitude 10° 00:49:41 10° 15° (NNE) 2,745 7.9 -11.9°
Sets 00:52:14 0° 13° (NNE) 3,703 9.1 -11.8°
